Louisville Bowman, KY

9:23 PM EDT on May 25, 2017 (GMT -0400)
Bowman

Weather History for KLOU - April, 2014

Change the Weather History Date:

Saturday, April 12, 2014

  Actual Average Record
Temperature  
Mean Temperature 68 °F 56 °F  
Max Temperature 82 °F 66 °F 85 °F (1977)
Min Temperature 54 °F 46 °F 29 °F (1976)
Degree Days  
Heating Degree Days 0 10  
Month to date heating degree days 77 140  
Since 1 July heating degree days 4563 4063  
Cooling Degree Days 3 1  
Month to date cooling degree days 8 12  
Year to date cooling degree days 8 16  
Growing Degree Days 18 (Base 50)    
Moisture  
Dew Point 50 °F    
Average Humidity 57    
Maximum Humidity 77    
Minimum Humidity 36    
Precipitation  
Precipitation 0.00 in 0.12 in 1.36 in (1979)
Month to date precipitation 3.81 1.41  
Year to date precipitation 11.76 12.13  
Sea Level Pressure  
Sea Level Pressure 30.03 in    
Wind  
Wind Speed 8 mph (South)    
Max Wind Speed 21 mph    
Max Gust Speed 32 mph    
Visibility 10 miles    
Events      
T = Trace of Precipitation, MM = Missing Value Source: NWS Daily Summary

Daily Weather History Graph

Daily Weather History Graph

Search for Another Location

Airport or City:

Trip Planner

Search our weather history database for the weather conditions in past years. The results will help you decide how hot, cold, wet, or windy it might be!

Date:

Astronomy

Apr. 12, 2014 Rise Set
Actual Time 7:11 AM EDT 8:16 PM EDT
Civil Twilight 6:44 AM EDT 8:43 PM EDT
Nautical Twilight 6:11 AM EDT 9:15 PM EDT
Astronomical Twilight 5:38 AM EDT 9:49 PM EDT
Moon 5:55 PM EDT (4/12) 5:35 AM EDT (4/12)
Length of Visible Light 13h 59m
Length of Day
13h 04m
Waxing Gibbous, 93% of the Moon is Illuminated
Apr 12
Waxing Gibbous
Apr 15
Full
Apr 22
Last Quarter
Apr 29
New
May 6
First Quarter

Hourly Weather History & Observations

Time (EDT) Temp. Heat Index Dew Point Humidity Pressure Visibility Wind Dir Wind Speed Gust Speed Precip Events Conditions
12:53 AM 57.0 °F - 42.1 °F 57% 30.09 in 10.0 mi Calm Calm - N/A   Clear
1:53 AM 59.0 °F - 44.1 °F 58% 30.10 in 10.0 mi Calm Calm - N/A   Mostly Cloudy
2:53 AM 59.0 °F - 46.9 °F 64% 30.10 in 10.0 mi Calm Calm - N/A   Overcast
3:53 AM 59.0 °F - 46.0 °F 62% 30.10 in 10.0 mi Calm Calm - N/A   Scattered Clouds
4:53 AM 55.0 °F - 46.0 °F 72% 30.10 in 10.0 mi SSE 3.5 mph - N/A   Clear
5:53 AM 55.0 °F - 46.0 °F 72% 30.12 in 10.0 mi Calm Calm - N/A   Clear
6:53 AM 54.0 °F - 46.9 °F 77% 30.12 in 10.0 mi Calm Calm - N/A   Clear
7:53 AM 55.9 °F - 48.9 °F 77% 30.13 in 9.0 mi SE 3.5 mph - N/A   Clear
8:53 AM 62.1 °F - 52.0 °F 70% 30.13 in 10.0 mi SSE 4.6 mph - N/A   Clear
9:53 AM 66.0 °F - 54.0 °F 65% 30.12 in 10.0 mi Variable 6.9 mph - N/A   Clear
10:53 AM 71.1 °F - 55.0 °F 57% 30.13 in 10.0 mi South 8.1 mph - N/A   Clear
11:53 AM 73.9 °F - 53.1 °F 48% 30.11 in 10.0 mi South 11.5 mph 19.6 mph N/A   Clear
12:53 PM 77.0 °F - 53.1 °F 43% 30.08 in 10.0 mi SSE 12.7 mph 24.2 mph N/A   Partly Cloudy
1:53 PM 79.0 °F - 53.1 °F 40% 30.04 in 10.0 mi South 10.4 mph 23.0 mph N/A   Clear
2:53 PM 80.1 °F 79.9 °F 53.1 °F 39% 30.01 in 10.0 mi South 13.8 mph 26.5 mph N/A   Mostly Cloudy
3:53 PM 81.0 °F - 51.1 °F 35% 29.97 in 10.0 mi South 18.4 mph 26.5 mph N/A   Partly Cloudy
4:53 PM 81.0 °F - 51.1 °F 35% 29.94 in 10.0 mi South 18.4 mph 26.5 mph N/A   Partly Cloudy
5:53 PM 80.1 °F - 51.1 °F 36% 29.93 in 10.0 mi South 11.5 mph 20.7 mph N/A   Partly Cloudy
6:53 PM 80.1 °F - 51.1 °F 36% 29.92 in 10.0 mi South 13.8 mph 21.9 mph N/A   Partly Cloudy
7:53 PM 79.0 °F - 52.0 °F 39% 29.91 in 10.0 mi South 8.1 mph - N/A   Partly Cloudy
8:53 PM 77.0 °F - 51.1 °F 40% 29.91 in 10.0 mi South 6.9 mph - N/A   Clear
9:53 PM 73.9 °F - 51.1 °F 45% 29.92 in 10.0 mi South 6.9 mph - N/A   Clear
10:53 PM 73.9 °F - 51.1 °F 45% 29.91 in 10.0 mi South 10.4 mph - N/A   Clear
11:53 PM 75.0 °F - 50.0 °F 41% 29.89 in 10.0 mi SSW 12.7 mph 26.5 mph N/A   Clear